Time,TemperatureF,DewpointF,PressureIn,WindDirection,WindDirectionDegrees,WindSpeedMPH,WindSpeedGustMPH,Humidity,HourlyPrecipIn,Conditions,Clouds,dailyrainin,SoftwareType,DateUTC
2013-07-03 00:11:00,71.0,70.0,-100.00,SW,225,0.0,2.0,97,0.00,,,0.00,,2013-07-03 05:11:00,
2013-07-03 00:23:00,71.0,70.0,-100.00,SW,225,0.0,2.0,97,0.00,,,0.00,,2013-07-03 05:23:00,
2013-07-03 00:38:00,71.0,70.0,-100.00,SW,225,0.0,2.0,97,0.00,,,0.00,,2013-07-03 05:38:00,
2013-07-03 00:46:00,71.0,70.0,-100.00,NW,318,1.0,2.0,97,0.00,,,0.00,,2013-07-03 05:46:00,
2013-07-03 01:24:00,71.0,70.0,-100.00,NW,318,1.0,2.0,97,0.00,,,0.00,,2013-07-03 06:24:00,
2013-07-03 01:39:00,71.0,70.0,-100.00,NW,318,1.0,2.0,97,0.00,,,0.00,,2013-07-03 06:39:00,
2013-07-03 01:46:00,72.0,71.0,-100.00,SSE,155,0.0,1.0,96,0.00,,,0.00,,2013-07-03 06:46:00,
2013-07-03 02:15:00,72.0,71.0,-100.00,SSE,155,0.0,1.0,96,0.00,,,0.00,,2013-07-03 07:15:00,
2013-07-03 02:26:00,72.0,71.0,-100.00,SSE,155,0.0,1.0,96,0.00,,,0.00,,2013-07-03 07:26:00,
2013-07-03 02:37:00,72.0,71.0,-100.00,SSE,155,0.0,1.0,96,0.00,,,0.00,,2013-07-03 07:37:00,
2013-07-03 03:16:00,72.0,71.0,-100.00,WSW,247,0.0,1.0,97,0.01,,,0.01,,2013-07-03 08:16:00,
2013-07-03 03:25:00,72.0,71.0,-100.00,WSW,247,0.0,1.0,97,0.01,,,0.01,,2013-07-03 08:25:00,
2013-07-03 03:36:00,72.0,71.0,-100.00,WSW,247,0.0,1.0,97,0.01,,,0.01,,2013-07-03 08:36:00,
2013-07-03 03:45:00,72.0,71.0,-100.00,WSW,247,0.0,1.0,97,0.01,,,0.01,,2013-07-03 08:45:00,
2013-07-03 03:46:00,72.0,71.0,-100.00,East,95,0.0,0.0,98,0.00,,,0.01,,2013-07-03 08:46:00,
2013-07-03 04:16:00,72.0,71.0,-100.00,East,95,0.0,0.0,98,0.00,,,0.01,,2013-07-03 09:16:00,
2013-07-03 04:24:00,72.0,71.0,-100.00,East,95,0.0,0.0,98,0.00,,,0.01,,2013-07-03 09:24:00,
2013-07-03 04:38:00,72.0,71.0,-100.00,East,95,0.0,0.0,98,0.00,,,0.01,,2013-07-03 09:38:00,
2013-07-03 05:28:00,72.0,71.0,-100.00,NW,322,0.0,0.0,98,0.00,,,0.01,,2013-07-03 10:28:00,
2013-07-03 05:36:00,72.0,71.0,-100.00,NW,322,0.0,0.0,98,0.00,,,0.01,,2013-07-03 10:36:00,
2013-07-03 06:16:00,72.0,71.0,-100.00,NNW,340,0.0,2.0,98,0.02,,,0.03,,2013-07-03 11:16:00,
2013-07-03 06:25:00,72.0,71.0,-100.00,NNW,340,0.0,2.0,98,0.02,,,0.03,,2013-07-03 11:25:00,
2013-07-03 06:38:00,72.0,71.0,-100.00,NNW,340,0.0,2.0,98,0.02,,,0.03,,2013-07-03 11:38:00,
2013-07-03 06:43:00,72.0,71.0,-100.00,NNW,340,0.0,2.0,98,0.02,,,0.03,,2013-07-03 11:43:00,
2013-07-03 07:16:00,72.0,71.0,-100.00,NW,317,1.0,5.0,98,0.03,,,0.06,,2013-07-03 12:16:00,
2013-07-03 07:25:00,72.0,71.0,-100.00,NW,317,1.0,5.0,98,0.03,,,0.06,,2013-07-03 12:25:00,
2013-07-03 07:37:00,72.0,71.0,-100.00,NW,317,1.0,5.0,98,0.03,,,0.06,,2013-07-03 12:37:00,
2013-07-03 07:43:00,72.0,71.0,-100.00,NW,317,1.0,5.0,98,0.03,,,0.06,,2013-07-03 12:43:00,
2013-07-03 08:17:00,72.0,71.0,-100.00,WNW,301,2.0,5.0,98,0.01,,,0.07,,2013-07-03 13:17:00,
2013-07-03 08:25:00,72.0,71.0,-100.00,WNW,301,2.0,5.0,98,0.01,,,0.07,,2013-07-03 13:25:00,
2013-07-03 08:35:00,72.0,71.0,-100.00,WNW,301,2.0,5.0,98,0.01,,,0.07,,2013-07-03 13:35:00,
2013-07-03 08:46:00,73.0,72.0,-100.00,East,99,2.0,4.0,98,0.00,,,0.07,,2013-07-03 13:46:00,
2013-07-03 09:15:00,73.0,72.0,-100.00,East,99,2.0,4.0,98,0.00,,,0.07,,2013-07-03 14:15:00,
2013-07-03 09:26:00,73.0,72.0,-100.00,East,99,2.0,4.0,98,0.00,,,0.07,,2013-07-03 14:26:00,
2013-07-03 10:14:00,72.0,71.0,-100.00,NE,36,1.0,4.0,98,0.01,,,0.08,,2013-07-03 15:14:00,
2013-07-03 10:26:00,72.0,71.0,-100.00,NE,36,1.0,4.0,98,0.01,,,0.08,,2013-07-03 15:26:00,
2013-07-03 10:37:00,72.0,71.0,-100.00,NE,36,1.0,4.0,98,0.01,,,0.08,,2013-07-03 15:37:00,
2013-07-03 10:46:00,75.0,74.0,-100.00,North,358,2.0,7.0,98,0.00,,,0.08,,2013-07-03 15:46:00,
2013-07-03 11:23:00,75.0,74.0,-100.00,North,358,2.0,7.0,98,0.00,,,0.08,,2013-07-03 16:23:00,
2013-07-03 11:38:00,75.0,74.0,-100.00,North,358,2.0,7.0,98,0.00,,,0.08,,2013-07-03 16:38:00,
2013-07-03 11:46:00,81.0,73.0,-100.00,North,11,2.0,6.0,77,0.00,,,0.08,,2013-07-03 16:46:00,
2013-07-03 12:16:00,81.0,73.0,-100.00,North,11,2.0,6.0,77,0.00,,,0.08,,2013-07-03 17:16:00,
2013-07-03 12:25:00,81.0,73.0,-100.00,North,11,2.0,6.0,77,0.00,,,0.08,,2013-07-03 17:25:00,
2013-07-03 12:40:00,81.0,73.0,-100.00,North,11,2.0,6.0,77,0.00,,,0.08,,2013-07-03 17:40:00,
2013-07-03 13:15:00,84.0,73.0,-100.00,NW,309,4.0,9.0,69,0.00,,,0.08,,2013-07-03 18:15:00,
2013-07-03 13:25:00,84.0,73.0,-100.00,NW,309,4.0,9.0,69,0.00,,,0.08,,2013-07-03 18:25:00,
2013-07-03 13:36:00,84.0,73.0,-100.00,NW,309,4.0,9.0,69,0.00,,,0.08,,2013-07-03 18:36:00,
2013-07-03 13:45:00,84.0,73.0,-100.00,NW,309,4.0,9.0,69,0.00,,,0.08,,2013-07-03 18:45:00,
2013-07-03 13:46:00,88.0,75.0,-100.00,WNW,299,3.0,8.0,65,0.00,,,0.08,,2013-07-03 18:46:00,
2013-07-03 14:37:00,88.0,75.0,-100.00,WNW,299,3.0,8.0,65,0.00,,,0.08,,2013-07-03 19:37:00,
2013-07-03 15:24:00,89.0,75.0,-100.00,NNW,338,3.0,7.0,64,0.00,,,0.08,,2013-07-03 20:24:00,
2013-07-03 15:44:00,89.0,75.0,-100.00,NNW,338,3.0,7.0,64,0.00,,,0.08,,2013-07-03 20:44:00,
2013-07-03 16:13:00,89.0,76.0,-100.00,NW,312,3.0,10.0,65,0.00,,,0.08,,2013-07-03 21:13:00,
2013-07-03 17:14:00,74.0,66.0,-100.00,SE,124,2.0,8.0,75,-99.99,,,0.38,,2013-07-03 22:14:00,
2013-07-03 17:26:00,74.0,66.0,-100.00,SE,124,2.0,8.0,75,-99.99,,,0.38,,2013-07-03 22:26:00,
2013-07-03 17:37:00,74.0,66.0,-100.00,SE,124,2.0,8.0,75,-99.99,,,0.38,,2013-07-03 22:37:00,
2013-07-03 17:45:00,74.0,66.0,-100.00,SE,124,2.0,8.0,75,-99.99,,,0.38,,2013-07-03 22:45:00,
2013-07-03 18:14:00,77.0,76.0,-100.00,ESE,104,2.0,5.0,97,0.22,,,0.60,,2013-07-03 23:14:00,
2013-07-03 18:24:00,77.0,76.0,-100.00,ESE,104,2.0,5.0,97,0.22,,,0.60,,2013-07-03 23:24:00,
2013-07-03 18:39:00,77.0,76.0,-100.00,ESE,104,2.0,5.0,97,0.22,,,0.60,,2013-07-03 23:39:00,
2013-07-03 18:44:00,77.0,76.0,-100.00,ESE,104,2.0,5.0,97,0.22,,,0.60,,2013-07-03 23:44:00,
2013-07-03 19:15:00,77.0,74.0,-100.00,NNW,340,1.0,6.0,90,0.00,,,0.60,,2013-07-04 00:15:00,
2013-07-03 19:25:00,77.0,74.0,-100.00,NNW,340,1.0,6.0,90,0.00,,,0.60,,2013-07-04 00:25:00,
2013-07-03 19:36:00,77.0,74.0,-100.00,NNW,340,1.0,6.0,90,0.00,,,0.60,,2013-07-04 00:36:00,
2013-07-03 20:15:00,75.0,73.0,-100.00,ESE,110,2.0,6.0,93,0.00,,,0.60,,2013-07-04 01:15:00,
2013-07-03 20:23:00,75.0,73.0,-100.00,ESE,110,2.0,6.0,93,0.00,,,0.60,,2013-07-04 01:23:00,
2013-07-03 20:37:00,75.0,73.0,-100.00,ESE,110,2.0,6.0,93,0.00,,,0.60,,2013-07-04 01:37:00,
2013-07-03 20:43:00,75.0,73.0,-100.00,ESE,110,2.0,6.0,93,0.00,,,0.60,,2013-07-04 01:43:00,
2013-07-03 21:14:00,73.0,71.0,-100.00,SE,142,1.0,5.0,95,0.00,,,0.60,,2013-07-04 02:14:00,
2013-07-03 21:23:00,73.0,71.0,-100.00,SE,142,1.0,5.0,95,0.00,,,0.60,,2013-07-04 02:23:00,
2013-07-03 21:39:00,73.0,71.0,-100.00,SE,142,1.0,5.0,95,0.00,,,0.60,,2013-07-04 02:39:00,
2013-07-03 21:46:00,72.0,71.0,-100.00,North,350,1.0,4.0,96,0.00,,,0.60,,2013-07-04 02:46:00,
2013-07-03 22:14:00,72.0,71.0,-100.00,North,350,1.0,4.0,96,0.00,,,0.60,,2013-07-04 03:14:00,
2013-07-03 22:27:00,72.0,71.0,-100.00,North,350,1.0,4.0,96,0.00,,,0.60,,2013-07-04 03:27:00,
2013-07-03 22:35:00,72.0,71.0,-100.00,North,350,1.0,4.0,96,0.00,,,0.60,,2013-07-04 03:35:00,
2013-07-03 23:11:00,71.0,70.0,-100.00,ESE,109,1.0,5.0,97,0.00,,,0.60,,2013-07-04 04:11:00,
2013-07-03 23:22:00,71.0,70.0,-100.00,ESE,109,1.0,5.0,97,0.00,,,0.60,,2013-07-04 04:22:00,
2013-07-03 23:33:00,71.0,70.0,-100.00,ESE,109,1.0,5.0,97,0.00,,,0.60,,2013-07-04 04:33:00,
2013-07-03 23:43:00,71.0,70.0,-100.00,ESE,109,1.0,5.0,97,0.00,,,0.60,,2013-07-04 04:43:00,